Year,Month,Day,Hour,Minute,Value (Times are PST for temperature in C)
2016,08,01,14,38,18.20
2016,08,01,14,39,18.20
2016,08,01,14,40,18.10
2016,08,01,14,41,18.10
2016,08,01,14,42,18.10
2016,08,01,14,43,18.10
2016,08,01,14,44,18.00
2016,08,01,14,45,18.00
2016,08,01,14,46,17.90
2016,08,01,14,47,17.90
2016,08,01,14,48,17.90
2016,08,01,14,49,17.80
2016,08,01,14,50,17.80
2016,08,01,14,51,17.80
2016,08,01,14,52,17.80
2016,08,01,14,53,17.80
2016,08,01,14,54,17.80
2016,08,01,14,55,17.70
2016,08,01,14,56,17.70
2016,08,01,14,57,17.70
2016,08,01,14,58,17.70
2016,08,01,14,59,17.60
2016,08,01,15,00,17.60
2016,08,01,15,01,17.60
2016,08,01,15,02,17.60
2016,08,01,15,03,17.60
2016,08,01,15,04,17.60
2016,08,01,15,05,17.50
2016,08,01,15,06,17.50
2016,08,01,15,07,17.50
2016,08,01,15,08,17.40
2016,08,01,15,09,17.40
2016,08,01,15,10,17.40
2016,08,01,15,11,17.40
2016,08,01,15,12,17.40
2016,08,01,15,13,17.40
2016,08,01,15,14,17.40
2016,08,01,15,15,17.40
2016,08,01,15,16,17.40
2016,08,01,15,17,17.40
2016,08,01,15,18,17.40
2016,08,01,15,19,17.40
2016,08,01,15,20,17.40
2016,08,01,15,21,17.40
2016,08,01,15,22,17.50
2016,08,01,15,23,17.50
2016,08,01,15,24,17.50
2016,08,01,15,25,17.50
2016,08,01,15,26,17.50
2016,08,01,15,27,17.50
2016,08,01,15,28,17.50
2016,08,01,15,29,17.50
2016,08,01,15,30,17.60
2016,08,01,15,31,17.60
2016,08,01,15,32,17.60
2016,08,01,15,33,17.50
2016,08,01,15,34,17.50
2016,08,01,15,35,17.50
2016,08,01,15,36,17.50
2016,08,01,15,37,17.50
2016,08,01,15,38,17.40
2016,08,01,15,39,17.40
2016,08,01,15,40,17.40
2016,08,01,15,41,17.40
2016,08,01,15,42,17.30
2016,08,01,15,43,17.30
2016,08,01,15,44,17.30
2016,08,01,15,45,17.30
2016,08,01,15,46,17.30
2016,08,01,15,47,17.30
2016,08,01,15,48,17.30
2016,08,01,15,49,17.20
2016,08,01,15,50,17.20
2016,08,01,15,51,17.20
2016,08,01,15,52,17.20
2016,08,01,15,53,17.20
2016,08,01,15,54,17.20
2016,08,01,15,55,17.20
2016,08,01,15,56,17.20
2016,08,01,15,57,17.20
2016,08,01,15,58,17.20
2016,08,01,15,59,17.20
2016,08,01,16,00,17.20
2016,08,01,16,01,17.20
2016,08,01,16,02,17.20
2016,08,01,16,03,17.20
2016,08,01,16,04,17.20
2016,08,01,16,05,17.20
2016,08,01,16,06,17.20
2016,08,01,16,07,17.10
2016,08,01,16,08,17.10
2016,08,01,16,09,17.10
2016,08,01,16,10,17.10
2016,08,01,16,11,17.10
2016,08,01,16,12,17.00
2016,08,01,16,13,17.00
2016,08,01,16,14,17.00
2016,08,01,16,15,17.00
2016,08,01,16,16,17.00
2016,08,01,16,17,16.90
2016,08,01,16,18,16.90
2016,08,01,16,19,16.90
2016,08,01,16,20,16.90
2016,08,01,16,21,16.90
2016,08,01,16,22,16.80
2016,08,01,16,23,16.80
2016,08,01,16,24,16.80
2016,08,01,16,25,16.80
2016,08,01,16,26,16.80
2016,08,01,16,27,16.80
2016,08,01,16,28,16.80
2016,08,01,16,29,16.80
2016,08,01,16,30,16.70
2016,08,01,16,31,16.70
2016,08,01,16,32,16.60
2016,08,01,16,33,16.60
2016,08,01,16,34,16.50
2016,08,01,16,35,16.50
2016,08,01,16,36,16.40
2016,08,01,16,37,16.30
2016,08,01,16,38,16.30
2016,08,01,16,39,16.20
2016,08,01,16,40,16.20
2016,08,01,16,41,16.10
2016,08,01,16,42,16.10
2016,08,01,16,43,16.00
2016,08,01,16,44,16.00
2016,08,01,16,45,15.90
2016,08,01,16,46,15.90
2016,08,01,16,47,15.90
2016,08,01,16,48,15.80
2016,08,01,16,49,15.80
2016,08,01,16,50,15.80
2016,08,01,16,51,15.80
2016,08,01,16,52,15.70
2016,08,01,16,53,15.70
2016,08,01,16,54,15.70
2016,08,01,16,55,15.70
2016,08,01,16,56,15.60
2016,08,01,16,57,15.60
2016,08,01,16,58,15.60
2016,08,01,16,59,15.50
2016,08,01,17,00,15.50
2016,08,01,17,01,15.50
2016,08,01,17,02,15.40
2016,08,01,17,03,15.40
2016,08,01,17,04,15.40
2016,08,01,17,05,15.40
2016,08,01,17,06,15.40
2016,08,01,17,07,15.40
2016,08,01,17,08,15.30
2016,08,01,17,09,15.30
2016,08,01,17,10,15.30
2016,08,01,17,11,15.30
2016,08,01,17,12,15.30
2016,08,01,17,13,15.30
2016,08,01,17,14,15.30
2016,08,01,17,15,15.20
2016,08,01,17,16,15.20
2016,08,01,17,17,15.20
2016,08,01,17,18,15.20
2016,08,01,17,19,15.20
2016,08,01,17,20,15.20
2016,08,01,17,21,15.20
2016,08,01,17,22,15.20
2016,08,01,17,23,15.10
2016,08,01,17,24,15.10
2016,08,01,17,25,15.10
2016,08,01,17,26,15.10
2016,08,01,17,27,15.10
2016,08,01,17,28,15.10
2016,08,01,17,29,15.10
2016,08,01,17,30,15.10
2016,08,01,17,31,15.10
2016,08,01,17,32,15.10
2016,08,01,17,33,15.10
2016,08,01,17,34,15.10
2016,08,01,17,35,15.10
2016,08,01,17,36,15.10
2016,08,01,17,37,15.10
2016,08,01,17,38,15.10
2016,08,01,17,39,15.10
2016,08,01,17,40,15.10
2016,08,01,17,41,15.10
2016,08,01,17,42,15.10
2016,08,01,17,43,15.00
2016,08,01,17,44,15.00
2016,08,01,17,45,15.00
2016,08,01,17,46,15.00
2016,08,01,17,47,15.00
2016,08,01,17,48,15.00
2016,08,01,17,49,15.00
2016,08,01,17,50,15.00
2016,08,01,17,51,15.10
2016,08,01,17,52,15.10
2016,08,01,17,53,15.10
2016,08,01,17,54,15.10
2016,08,01,17,55,15.10
2016,08,01,17,56,15.10
2016,08,01,17,57,15.10
2016,08,01,17,58,15.10
2016,08,01,17,59,15.10
2016,08,01,18,00,15.10
2016,08,01,18,01,15.10
2016,08,01,18,02,15.10
2016,08,01,18,03,15.10
2016,08,01,18,04,15.10
2016,08,01,18,05,15.10
2016,08,01,18,06,15.10
2016,08,01,18,07,15.10
2016,08,01,18,08,15.10
2016,08,01,18,09,15.10
2016,08,01,18,10,15.10
2016,08,01,18,11,15.10
2016,08,01,18,12,15.10
2016,08,01,18,13,15.00
2016,08,01,18,14,15.00
2016,08,01,18,15,15.00
2016,08,01,18,16,15.00
2016,08,01,18,17,15.00
2016,08,01,18,18,15.00
2016,08,01,18,19,14.90
2016,08,01,18,20,14.90
2016,08,01,18,21,14.90
2016,08,01,18,22,14.90
2016,08,01,18,23,14.90
2016,08,01,18,24,14.90
2016,08,01,18,25,14.90
2016,08,01,18,26,14.90
2016,08,01,18,27,14.90
2016,08,01,18,28,14.90
2016,08,01,18,29,14.90
2016,08,01,18,30,14.80
2016,08,01,18,31,14.80
2016,08,01,18,32,14.80
2016,08,01,18,33,14.80
2016,08,01,18,34,14.80
2016,08,01,18,35,14.80
2016,08,01,18,36,14.80
2016,08,01,18,37,14.80
2016,08,01,18,38,14.80
2016,08,01,18,39,14.80
2016,08,01,18,40,14.80
2016,08,01,18,41,14.80
2016,08,01,18,42,14.80
2016,08,01,18,43,14.80
2016,08,01,18,44,14.80
2016,08,01,18,45,14.80
2016,08,01,18,46,14.80
2016,08,01,18,47,14.80
2016,08,01,18,48,14.80
2016,08,01,18,49,14.80
2016,08,01,18,50,14.80
2016,08,01,18,51,14.80
2016,08,01,18,52,14.80
2016,08,01,18,53,14.80
2016,08,01,18,54,14.80
2016,08,01,18,55,14.70
2016,08,01,18,56,14.70
2016,08,01,18,57,14.70
2016,08,01,18,58,14.70
2016,08,01,18,59,14.70
2016,08,01,19,00,14.70
2016,08,01,19,01,14.70
2016,08,01,19,02,14.70
2016,08,01,19,03,14.60
2016,08,01,19,04,14.60
2016,08,01,19,05,14.60
2016,08,01,19,06,14.60
2016,08,01,19,07,14.60
2016,08,01,19,08,14.60
2016,08,01,19,09,14.60
2016,08,01,19,10,14.60
2016,08,01,19,11,14.60
2016,08,01,19,12,14.60
2016,08,01,19,13,14.60
2016,08,01,19,14,14.60
2016,08,01,19,15,14.60
2016,08,01,19,16,14.60
2016,08,01,19,17,14.60
2016,08,01,19,18,14.50
2016,08,01,19,19,14.50
2016,08,01,19,20,14.50
2016,08,01,19,21,14.50
2016,08,01,19,22,14.50
2016,08,01,19,23,14.50
2016,08,01,19,24,14.50
2016,08,01,19,25,14.50
2016,08,01,19,26,14.50
2016,08,01,19,27,14.50
2016,08,01,19,28,14.50
2016,08,01,19,29,14.50
2016,08,01,19,30,14.50
2016,08,01,19,31,14.50
2016,08,01,19,32,14.50
2016,08,01,19,33,14.50
2016,08,01,19,34,14.50
2016,08,01,19,35,14.40
2016,08,01,19,36,14.40
2016,08,01,19,37,14.40
2016,08,01,19,38,14.40
2016,08,01,19,39,14.40
2016,08,01,19,40,14.40
2016,08,01,19,41,14.40
2016,08,01,19,42,14.40
2016,08,01,19,43,14.40
2016,08,01,19,44,14.40
2016,08,01,19,45,14.40
2016,08,01,19,46,14.40
2016,08,01,19,47,14.40
2016,08,01,19,48,14.40
2016,08,01,19,49,14.40
2016,08,01,19,50,14.30
2016,08,01,19,51,14.30
2016,08,01,19,52,14.40
2016,08,01,19,53,14.30
2016,08,01,19,54,14.30
2016,08,01,19,55,14.30
2016,08,01,19,56,14.30
2016,08,01,19,57,14.30
2016,08,01,19,58,14.30
2016,08,01,19,59,14.30
2016,08,01,20,00,14.30
2016,08,01,20,01,14.30
2016,08,01,20,02,14.30
2016,08,01,20,03,14.30
2016,08,01,20,04,14.30
2016,08,01,20,05,14.30
2016,08,01,20,06,14.30
2016,08,01,20,07,14.20
2016,08,01,20,08,14.20
2016,08,01,20,09,14.20
2016,08,01,20,10,14.20
2016,08,01,20,11,14.20
2016,08,01,20,12,14.20
2016,08,01,20,13,14.20
2016,08,01,20,14,14.20
2016,08,01,20,15,14.20
2016,08,01,20,16,14.20
2016,08,01,20,17,14.20
2016,08,01,20,18,14.20
2016,08,01,20,19,14.20
2016,08,01,20,20,14.20
2016,08,01,20,21,14.20
2016,08,01,20,22,14.20
2016,08,01,20,23,14.20
2016,08,01,20,24,14.20
2016,08,01,20,25,14.20
2016,08,01,20,26,14.20
2016,08,01,20,27,14.20
2016,08,01,20,28,14.20
2016,08,01,20,29,14.10
2016,08,01,20,30,14.10
2016,08,01,20,31,14.10
2016,08,01,20,32,14.10
2016,08,01,20,33,14.10
2016,08,01,20,34,14.00
2016,08,01,20,35,14.00
2016,08,01,20,36,14.00
2016,08,01,20,37,14.00
2016,08,01,20,38,13.90
2016,08,01,20,39,13.90
2016,08,01,20,40,13.90
2016,08,01,20,41,13.90
2016,08,01,20,42,13.90
2016,08,01,20,43,13.90
2016,08,01,20,44,13.90
2016,08,01,20,45,13.90
2016,08,01,20,46,13.90
2016,08,01,20,47,13.90
2016,08,01,20,48,13.90
2016,08,01,20,49,13.90
2016,08,01,20,50,13.90
2016,08,01,20,51,13.90
2016,08,01,20,52,14.00
2016,08,01,20,53,14.00
2016,08,01,20,54,14.00
2016,08,01,20,55,14.00
2016,08,01,20,56,14.00
2016,08,01,20,57,14.00
2016,08,01,20,58,14.00
2016,08,01,20,59,14.00
2016,08,01,21,00,14.00
2016,08,01,21,01,14.00
2016,08,01,21,02,14.00
2016,08,01,21,03,14.00
2016,08,01,21,04,14.00
2016,08,01,21,05,14.00
2016,08,01,21,06,14.00
2016,08,01,21,07,14.00
2016,08,01,21,08,14.00
2016,08,01,21,09,14.00
2016,08,01,21,10,14.00
2016,08,01,21,11,14.00
2016,08,01,21,12,14.00
2016,08,01,21,13,14.00
2016,08,01,21,14,14.00
2016,08,01,21,15,14.00
2016,08,01,21,16,14.00
2016,08,01,21,17,14.10
2016,08,01,21,18,14.10
2016,08,01,21,19,14.10
2016,08,01,21,20,14.10
2016,08,01,21,21,14.10
2016,08,01,21,22,14.10
2016,08,01,21,23,14.10
2016,08,01,21,24,14.00
2016,08,01,21,25,14.00
2016,08,01,21,26,14.00
2016,08,01,21,27,14.00
2016,08,01,21,28,14.00
2016,08,01,21,29,14.00
2016,08,01,21,30,14.00
2016,08,01,21,31,14.00
2016,08,01,21,32,13.90
2016,08,01,21,33,13.90
2016,08,01,21,34,13.90
2016,08,01,21,35,13.90
2016,08,01,21,36,13.90
2016,08,01,21,37,13.90
2016,08,01,21,38,13.90
2016,08,01,21,39,13.90
2016,08,01,21,40,13.90
2016,08,01,21,41,13.90
2016,08,01,21,42,13.90
2016,08,01,21,43,13.90
2016,08,01,21,44,13.80
2016,08,01,21,45,13.80
2016,08,01,21,46,13.80
2016,08,01,21,47,13.80
2016,08,01,21,48,13.80
2016,08,01,21,49,13.80
2016,08,01,21,50,13.80
2016,08,01,21,51,13.80
2016,08,01,21,52,13.80
2016,08,01,21,53,13.80
2016,08,01,21,54,13.80
2016,08,01,21,55,13.80
2016,08,01,21,56,13.80
2016,08,01,21,57,13.80
2016,08,01,21,58,13.70
2016,08,01,21,59,13.70
2016,08,01,22,00,13.70
2016,08,01,22,01,13.70
2016,08,01,22,02,13.70
2016,08,01,22,03,13.70
2016,08,01,22,04,13.70
2016,08,01,22,05,13.70
2016,08,01,22,06,13.70
2016,08,01,22,07,13.70
2016,08,01,22,08,13.60
2016,08,01,22,09,13.60
2016,08,01,22,10,13.60
2016,08,01,22,11,13.60
2016,08,01,22,12,13.60
2016,08,01,22,13,13.60
2016,08,01,22,14,13.60
2016,08,01,22,15,13.60
2016,08,01,22,16,13.60
2016,08,01,22,17,13.60
2016,08,01,22,18,13.60
2016,08,01,22,19,13.60
2016,08,01,22,20,13.60
2016,08,01,22,21,13.60
2016,08,01,22,22,13.60
2016,08,01,22,23,13.60
2016,08,01,22,24,13.60
2016,08,01,22,25,13.60
2016,08,01,22,26,13.60
2016,08,01,22,27,13.60
2016,08,01,22,28,13.60
2016,08,01,22,29,13.60
2016,08,01,22,30,13.60
2016,08,01,22,31,13.70
2016,08,01,22,32,13.70
2016,08,01,22,33,13.70
2016,08,01,22,34,13.70
2016,08,01,22,35,13.70
2016,08,01,22,36,13.70
2016,08,01,22,37,13.70
2016,08,01,22,38,13.70
2016,08,01,22,39,13.70
2016,08,01,22,40,13.70
2016,08,01,22,41,13.70
2016,08,01,22,42,13.70
2016,08,01,22,43,13.70
2016,08,01,22,44,13.70
2016,08,01,22,45,13.70
2016,08,01,22,46,13.70
2016,08,01,22,47,13.70
2016,08,01,22,48,13.70
2016,08,01,22,49,13.70
2016,08,01,22,50,13.70
2016,08,01,22,51,13.70
2016,08,01,22,52,13.70
2016,08,01,22,53,13.80
2016,08,01,22,54,13.80
2016,08,01,22,55,13.80
2016,08,01,22,56,13.80
2016,08,01,22,57,13.80
2016,08,01,22,58,13.80
2016,08,01,22,59,13.80
2016,08,01,23,00,13.80
2016,08,01,23,01,13.90
2016,08,01,23,02,13.90
2016,08,01,23,03,13.90
2016,08,01,23,04,13.90
2016,08,01,23,05,14.00
2016,08,01,23,06,14.00
2016,08,01,23,07,14.00
2016,08,01,23,08,14.00
2016,08,01,23,09,14.10
2016,08,01,23,10,14.10
2016,08,01,23,11,14.10
2016,08,01,23,12,14.10
2016,08,01,23,13,14.10
2016,08,01,23,14,14.20
2016,08,01,23,15,14.20
2016,08,01,23,16,14.20
2016,08,01,23,17,14.20
2016,08,01,23,18,14.20
2016,08,01,23,19,14.30
2016,08,01,23,20,14.30
2016,08,01,23,21,14.30
2016,08,01,23,22,14.30
2016,08,01,23,23,14.30
2016,08,01,23,24,14.30
2016,08,01,23,25,14.40
2016,08,01,23,26,14.40
2016,08,01,23,27,14.40
2016,08,01,23,28,14.40
2016,08,01,23,29,14.40
2016,08,01,23,30,14.40
2016,08,01,23,31,14.50
2016,08,01,23,32,14.50
2016,08,01,23,33,14.50
2016,08,01,23,34,14.50
2016,08,01,23,35,14.50
2016,08,01,23,36,14.50
2016,08,01,23,37,14.50
2016,08,01,23,38,14.60
2016,08,01,23,39,14.60
2016,08,01,23,40,14.60
2016,08,01,23,41,14.50
2016,08,01,23,42,14.50
2016,08,01,23,43,14.50
2016,08,01,23,44,14.50
2016,08,01,23,45,14.50
2016,08,01,23,46,14.50
2016,08,01,23,47,14.50
2016,08,01,23,48,14.50
2016,08,01,23,49,14.50
2016,08,01,23,50,14.50
2016,08,01,23,51,14.50
2016,08,01,23,52,14.50
2016,08,01,23,53,14.50
2016,08,01,23,54,14.50
2016,08,01,23,55,14.50
2016,08,01,23,56,14.50
2016,08,01,23,57,14.50
2016,08,01,23,58,14.50
2016,08,01,23,59,14.50
